Terug naar catalogus

STARLINK-2232

ActiefCommunicatieVLEO
NORAD 48578·PAYLOAD·🇺🇸 United States

Gelanceerd May 15, 2021 vanaf Cape Canaveral Space Force Station

Loading…

Volgende Passages (komende 24 uur)

TLE

VersSource: CelesTrak SupGP

Epoch: Sep 15, 2026, 01:02 UTC

1 48578C 21041AB  26258.04354167  .00052778  00000+0  16969-2 0  2582
2 48578  53.1601 325.5365 0001064  87.6693 168.0900 15.31680913    11

Volg STARLINK-2232 in realtime met AllMySat

Download on the App Store